Location: Grand Moustoir
(47.8355°N, 3.3120°W)
Time: 13:12:47
(UTC+00:00)

COSMOS 2455 - Pass Details

Date: 20 January 2020
Orbit: 902 x 907 km, 67.1° (Epoch: 21 February)

Event Time Altitude Azimuth Distance (km) Brightness Sun altitude
Rises 06:19:24 0° 218° (SW) 3,516 5.7 -15.6°
Reaches altitude 10° 06:21:54 10° 220° (SW) 2,580 5.0 -15.2°
Maximum altitude 06:27:53 75° 305° (NW) 939 2.8 -14.2°
Drops below altitude 10° 06:33:56 10° 32° (NNE) 2,598 5.4 -13.2°
Sets 06:36:27 0° 34° (NE) 3,544 6.2 -12.8°
